Location: Chochol
(49.7771°N, 14.9780°E)
Time: 16:59:10
(UTC+00:00)

SL-4 R/B - Pass Details

Date: 09 April 2020
Orbit: 428 x 666 km, 51.6° (Epoch: 28 May)

Event Time Altitude Azimuth Distance (km) Brightness Sun altitude
Rises 19:03:28 0° 259° (W) 2,394 6.1 -12.6°
Reaches altitude 10° 19:05:34 10° 261° (W) 1,524 5.1 -12.9°
Maximum altitude 19:08:57 75° 348° (NNW) 450 1.6 -13.4°
Enters shadow 19:11:39 16° 73° (ENE) 1,240 3.4 -13.8°
